Slidell, LA

10:15 AM CDT on July 20, 2017 (GMT -0500)
Slidell

Weather History for KASD - May, 2013

Change the Weather History Date:

Sunday, May 26, 2013

  Actual Average (KNEW) Record (KNEW)
Temperature  
Mean Temperature 74 °F -  
Max Temperature 84 °F 86 °F 93 °F (1980)
Min Temperature 63 °F 72 °F 48 °F (1979)
Cooling Degree Days 8    
Growing Degree Days 24 (Base 50)    
Moisture  
Dew Point 64 °F    
Average Humidity 74    
Maximum Humidity 97    
Minimum Humidity 47    
Precipitation  
Precipitation 0.00 in - - ()
Sea Level Pressure  
Sea Level Pressure 30.15 in    
Wind  
Wind Speed 2 mph (SE)    
Max Wind Speed 8 mph    
Max Gust Speed -    
Visibility 10 miles    
Events      
Averages and records for this station are not official NWS values.
T = Trace of Precipitation, MM = Missing Value Source: NWS Daily Summary

Daily Weather History Graph

Daily Weather History Graph

Search for Another Location

Airport or City:

Trip Planner

Search our weather history database for the weather conditions in past years. The results will help you decide how hot, cold, wet, or windy it might be!

Date:

Astronomy

May. 26, 2013 Rise Set
Actual Time 5:59 AM CDT 7:53 PM CDT
Civil Twilight 5:32 AM CDT 8:20 PM CDT
Nautical Twilight 5:00 AM CDT 8:52 PM CDT
Astronomical Twilight 4:25 AM CDT 9:27 PM CDT
Moon 9:42 PM CDT (5/26) 7:27 AM CDT (5/26)
Length of Visible Light 14h 47m
Length of Day
13h 53m
Waning Gibbous, 96% of the Moon is Illuminated
May 26
Waning Gibbous
May 31
Last Quarter
Jun 8
New
Jun 16
First Quarter
Jun 23
Full

Hourly Weather History & Observations

Time (CDT) Temp. Heat Index Dew Point Humidity Pressure Visibility Wind Dir Wind Speed Gust Speed Precip Events Conditions
12:53 AM 64.9 °F - 63.0 °F 93% 30.15 in 10.0 mi Calm Calm - N/A   Clear
1:53 AM 64.0 °F - 62.1 °F 93% 30.13 in 10.0 mi Calm Calm - N/A   Clear
2:53 AM 63.0 °F - 62.1 °F 97% 30.13 in 10.0 mi North 3.5 mph - N/A   Clear
3:53 AM 64.0 °F - 63.0 °F 96% 30.13 in 10.0 mi Calm Calm - N/A   Clear
4:53 AM 64.0 °F - 63.0 °F 96% 30.14 in 10.0 mi Calm Calm - N/A   Clear
5:53 AM 64.0 °F - 63.0 °F 96% 30.15 in 10.0 mi Calm Calm - N/A   Clear
6:53 AM 66.9 °F - 64.9 °F 93% 30.17 in 10.0 mi Calm Calm - N/A   Clear
7:53 AM 70.0 °F - 66.0 °F 87% 30.17 in 10.0 mi Calm Calm - N/A   Clear
8:53 AM 75.0 °F - 66.9 °F 76% 30.19 in 10.0 mi ENE 4.6 mph - N/A   Clear
9:53 AM 79.0 °F - 66.0 °F 64% 30.19 in 10.0 mi East 4.6 mph - N/A   Clear
10:53 AM 82.0 °F 83.4 °F 64.0 °F 54% 30.19 in 10.0 mi SE 5.8 mph - N/A   Partly Cloudy
11:53 AM 82.0 °F 83.0 °F 62.1 °F 51% 30.19 in 10.0 mi Calm Calm - N/A   Partly Cloudy
12:53 PM 82.9 °F 84.0 °F 63.0 °F 51% 30.18 in 10.0 mi SSE 6.9 mph - N/A   Partly Cloudy
1:53 PM 82.9 °F 84.0 °F 63.0 °F 51% 30.17 in 10.0 mi South 8.1 mph - N/A   Partly Cloudy
2:53 PM 84.0 °F 84.9 °F 63.0 °F 49% 30.15 in 10.0 mi SE 8.1 mph - N/A   Partly Cloudy
3:53 PM 82.0 °F 82.4 °F 60.1 °F 47% 30.15 in 10.0 mi SE 6.9 mph - N/A   Clear
4:53 PM 82.0 °F 82.7 °F 61.0 °F 49% 30.14 in 10.0 mi SE 8.1 mph - N/A   Clear
5:53 PM 80.1 °F 81.2 °F 62.1 °F 54% 30.13 in 10.0 mi SE 8.1 mph - N/A   Clear
6:53 PM 78.1 °F - 63.0 °F 60% 30.13 in 10.0 mi SSE 4.6 mph - N/A   Clear
7:53 PM 75.9 °F - 64.0 °F 67% 30.12 in 10.0 mi Calm Calm - N/A   Clear
8:53 PM 71.1 °F - 64.9 °F 81% 30.13 in 10.0 mi Calm Calm - N/A   Clear
9:53 PM 69.1 °F - 64.9 °F 87% 30.13 in 10.0 mi Calm Calm - N/A   Clear
10:53 PM 68.0 °F - 64.9 °F 90% 30.13 in 10.0 mi Calm Calm - N/A   Clear
11:53 PM 66.9 °F - 64.9 °F 93% 30.12 in 10.0 mi Calm Calm - N/A   Clear